When you browse on this site, cookies collect data to enhance your experience and personalize the content and advertising you see.
Visit our Privacy Policy to learn more. By continuing to use the site, you agree to this use of cookies and data.

Hourly Weather Cayenne

Today, 11 July, Saturday

Time Temperature Precipitation Wind Pressure Humidity
00:00 +26°C° 0.1 mm 3 mps 759 mmHg 95%
01:00 +25°C° 0 mm 3 mps 758 mmHg 96%
02:00 +25°C° 0 mm 3 mps 758 mmHg 96%
03:00 +25°C° 0 mm 2 mps 757 mmHg 96%
04:00 +25°C° 0 mm 2 mps 757 mmHg 96%
05:00 +25°C° 0 mm 3 mps 757 mmHg 96%
06:00 +25°C° 0 mm 3 mps 757 mmHg 96%
07:00 +26°C° 0 mm 3 mps 757 mmHg 91%
08:00 +28°C° 0 mm 3 mps 758 mmHg 86%
09:00 +29°C° 0 mm 3 mps 758 mmHg 81%
10:00 +30°C° 0.1 mm 3 mps 758 mmHg 77%
11:00 +32°C° 0.1 mm 4 mps 758 mmHg 72%
12:00 +33°C° 0.1 mm 4 mps 758 mmHg 68%
13:00 +33°C° 0.3 mm 4 mps 757 mmHg 69%
14:00 +33°C° 0.3 mm 4 mps 757 mmHg 70%
15:00 +32°C° 0.3 mm 4 mps 756 mmHg 71%
16:00 +30°C° 0.5 mm 4 mps 756 mmHg 77%
17:00 +29°C° 0.5 mm 4 mps 756 mmHg 82%
18:00 +28°C° 0.5 mm 4 mps 756 mmHg 88%
19:00 +28°C° 0.2 mm 4 mps 757 mmHg 90%
20:00 +27°C° 0.2 mm 4 mps 757 mmHg 92%
21:00 +26°C° 0.2 mm 4 mps 758 mmHg 94%
22:00 +26°C° 0.2 mm 3 mps 758 mmHg 95%
23:00 +26°C° 0.2 mm 3 mps 758 mmHg 95%

Tomorrow, 12 July, Sunday

Time Temperature Precipitation Wind Pressure Humidity
00:00 +26°C° 0.2 mm 3 mps 758 mmHg 96%
01:00 +25°C° 0.8 mm 3 mps 757 mmHg 96%
02:00 +25°C° 0.8 mm 3 mps 757 mmHg 97%
03:00 +25°C° 0.8 mm 3 mps 757 mmHg 97%
04:00 +25°C° 1.4 mm 3 mps 757 mmHg 97%
05:00 +25°C° 1.4 mm 3 mps 757 mmHg 97%
06:00 +25°C° 1.4 mm 3 mps 757 mmHg 97%
07:00 +26°C° 1.1 mm 3 mps 757 mmHg 96%
08:00 +27°C° 1.1 mm 3 mps 758 mmHg 94%
09:00 +28°C° 1.1 mm 3 mps 758 mmHg 93%
10:00 +28°C° 1.3 mm 3 mps 758 mmHg 92%
11:00 +29°C° 1.3 mm 3 mps 758 mmHg 90%
12:00 +29°C° 1.3 mm 3 mps 758 mmHg 89%
13:00 +29°C° 1.2 mm 4 mps 758 mmHg 89%
14:00 +29°C° 1.2 mm 4 mps 757 mmHg 89%
15:00 +29°C° 1.2 mm 4 mps 757 mmHg 89%
16:00 +29°C° 0.9 mm 4 mps 757 mmHg 91%
17:00 +28°C° 0.9 mm 4 mps 757 mmHg 92%
18:00 +28°C° 0.9 mm 4 mps 756 mmHg 94%
19:00 +27°C° 0.4 mm 4 mps 757 mmHg 95%
20:00 +26°C° 0.4 mm 4 mps 757 mmHg 96%
21:00 +25°C° 0.4 mm 3 mps 758 mmHg 97%
22:00 +25°C° 0.1 mm 3 mps 758 mmHg 97%
23:00 +25°C° 0.1 mm 3 mps 758 mmHg 96%

Day after tomorrow, 13 July, Monday

Time Temperature Precipitation Wind Pressure Humidity
00:00 +25°C° 0.1 mm 2 mps 758 mmHg 96%
01:00 +25°C° 0 mm 2 mps 758 mmHg 96%
02:00 +25°C° 0 mm 2 mps 757 mmHg 97%
03:00 +24°C° 0 mm 2 mps 757 mmHg 97%
04:00 +24°C° 0 mm 2 mps 757 mmHg 97%
05:00 +24°C° 0 mm 2 mps 757 mmHg 97%
06:00 +24°C° 0 mm 2 mps 757 mmHg 97%
07:00 +25°C° 0 mm 2 mps 758 mmHg 94%
08:00 +27°C° 0 mm 2 mps 758 mmHg 90%
09:00 +28°C° 0 mm 2 mps 759 mmHg 87%
10:00 +30°C° 0 mm 2 mps 759 mmHg 78%
11:00 +31°C° 0 mm 3 mps 759 mmHg 68%
12:00 +34°C° 0 mm 3 mps 759 mmHg 59%
13:00 +33°C° 0 mm 3 mps 758 mmHg 60%
14:00 +33°C° 0 mm 4 mps 757 mmHg 62%
15:00 +33°C° 0 mm 4 mps 757 mmHg 63%
16:00 +32°C° 0.1 mm 4 mps 757 mmHg 69%
17:00 +30°C° 0.1 mm 3 mps 757 mmHg 76%
18:00 +29°C° 0.1 mm 3 mps 757 mmHg 83%
19:00 +28°C° 0.2 mm 3 mps 757 mmHg 87%
20:00 +27°C° 0.2 mm 3 mps 758 mmHg 91%
21:00 +26°C° 0.2 mm 3 mps 758 mmHg 94%
22:00 +25°C° 0.1 mm 3 mps 758 mmHg 95%
23:00 +25°C° 0.1 mm 3 mps 758 mmHg 96%

14 July, Tuesday

Time Temperature Precipitation Wind Pressure Humidity
00:00 +25°C° 0.1 mm 3 mps 759 mmHg 96%
01:00 +25°C° 0 mm 2 mps 758 mmHg 96%
02:00 +24°C° 0 mm 2 mps 758 mmHg 97%
03:00 +24°C° 0 mm 2 mps 757 mmHg 97%
04:00 +24°C° 0.1 mm 2 mps 757 mmHg 97%
05:00 +24°C° 0.1 mm 2 mps 757 mmHg 97%
06:00 +24°C° 0.1 mm 2 mps 758 mmHg 98%
07:00 +25°C° 0 mm 2 mps 758 mmHg 94%
08:00 +27°C° 0 mm 2 mps 758 mmHg 89%
09:00 +28°C° 0 mm 2 mps 759 mmHg 85%
10:00 +30°C° 0 mm 2 mps 759 mmHg 75%
11:00 +31°C° 0 mm 3 mps 759 mmHg 66%
12:00 +34°C° 0 mm 3 mps 759 mmHg 56%
13:00 +33°C° 0.1 mm 3 mps 758 mmHg 59%
14:00 +33°C° 0.1 mm 3 mps 757 mmHg 63%
15:00 +33°C° 0.1 mm 4 mps 757 mmHg 66%
16:00 +30°C° 0.5 mm 4 mps 757 mmHg 74%
17:00 +29°C° 0.5 mm 4 mps 757 mmHg 82%
18:00 +27°C° 0.5 mm 4 mps 757 mmHg 90%
19:00 +27°C° 0.4 mm 4 mps 757 mmHg 91%
20:00 +26°C° 0.4 mm 4 mps 758 mmHg 93%
21:00 +25°C° 0.4 mm 3 mps 758 mmHg 94%
22:00 +25°C° 0.4 mm 3 mps 759 mmHg 94%
23:00 +25°C° 0.4 mm 3 mps 759 mmHg 95%

15 July, Wednesday

Time Temperature Precipitation Wind Pressure Humidity
00:00 +25°C° 0.4 mm 3 mps 759 mmHg 95%
01:00 +25°C° 0.2 mm 3 mps 758 mmHg 95%
02:00 +24°C° 0.2 mm 3 mps 758 mmHg 95%
03:00 +24°C° 0.2 mm 2 mps 757 mmHg 95%
04:00 +24°C° 0.2 mm 2 mps 757 mmHg 95%
05:00 +24°C° 0.2 mm 2 mps 757 mmHg 96%
06:00 +24°C° 0.2 mm 2 mps 758 mmHg 96%
07:00 +25°C° 0.2 mm 2 mps 758 mmHg 90%
08:00 +27°C° 0.2 mm 2 mps 758 mmHg 84%
09:00 +29°C° 0.2 mm 2 mps 759 mmHg 79%
10:00 +30°C° 0.2 mm 3 mps 759 mmHg 70%
11:00 +33°C° 0.2 mm 3 mps 759 mmHg 62%
12:00 +34°C° 0.2 mm 3 mps 759 mmHg 53%
13:00 +34°C° 0.3 mm 4 mps 758 mmHg 58%
14:00 +33°C° 0.3 mm 4 mps 758 mmHg 63%
15:00 +33°C° 0.3 mm 4 mps 757 mmHg 68%
16:00 +32°C° 0.3 mm 4 mps 757 mmHg 72%
17:00 +30°C° 0.3 mm 4 mps 757 mmHg 77%
18:00 +29°C° 0.3 mm 3 mps 757 mmHg 81%
19:00 +28°C° 0.1 mm 3 mps 757 mmHg 84%
20:00 +27°C° 0.1 mm 3 mps 758 mmHg 88%
21:00 +26°C° 0.1 mm 3 mps 758 mmHg 91%
22:00 +25°C° 0.2 mm 3 mps 758 mmHg 91%
23:00 +25°C° 0.2 mm 3 mps 758 mmHg 92%

16 July, Thursday

Time Temperature Precipitation Wind Pressure Humidity
00:00 +25°C° 0.2 mm 2 mps 759 mmHg 92%
01:00 +25°C° 0.3 mm 3 mps 758 mmHg 93%
02:00 +25°C° 0.3 mm 3 mps 758 mmHg 94%
03:00 +24°C° 0.3 mm 3 mps 757 mmHg 94%
04:00 +24°C° 0.5 mm 3 mps 758 mmHg 95%
05:00 +24°C° 0.5 mm 3 mps 758 mmHg 95%
06:00 +24°C° 0.5 mm 3 mps 758 mmHg 95%
07:00 +26°C° 0.4 mm 3 mps 758 mmHg 90%
08:00 +27°C° 0.4 mm 3 mps 759 mmHg 84%
09:00 +29°C° 0.4 mm 3 mps 759 mmHg 78%
10:00 +30°C° 0.1 mm 3 mps 759 mmHg 72%
11:00 +31°C° 0.1 mm 3 mps 759 mmHg 65%
12:00 +34°C° 0.1 mm 4 mps 759 mmHg 59%
13:00 +33°C° 0.4 mm 4 mps 758 mmHg 63%
14:00 +33°C° 0.4 mm 4 mps 758 mmHg 67%
15:00 +32°C° 0.4 mm 4 mps 757 mmHg 72%
16:00 +32°C° 0.3 mm 4 mps 757 mmHg 74%
17:00 +30°C° 0.3 mm 4 mps 757 mmHg 77%
18:00 +29°C° 0.3 mm 3 mps 757 mmHg 79%
19:00 +28°C° 0.2 mm 3 mps 758 mmHg 84%
20:00 +27°C° 0.2 mm 3 mps 758 mmHg 88%
21:00 +26°C° 0.2 mm 3 mps 758 mmHg 92%
22:00 +26°C° 0.2 mm 3 mps 759 mmHg 93%
23:00 +25°C° 0.2 mm 3 mps 759 mmHg 94%
Show more